1484596800.72,65227,5.81,72844.5,-17.55,-38.43,-38.17,0,*63
1484596801.99,65228,5.81,72846.5,-17.55,-38.49,-38.17,0,*66
1484596803.26,65229,5.81,72846.0,-17.53,-38.23,-37.99,0,*64
1484596804.49,65230,5.81,72844.5,-17.55,-38.61,-38.05,0,*66
1484596805.73,65231,5.81,72848.5,-17.53,-38.55,-38.11,0,*63
1484596806.94,65232,5.81,72846.5,-17.53,-38.43,-38.17,0,*61
1484596808.18,65233,5.81,72846.0,-17.53,-38.43,-38.11,0,*66
1484596809.39,65234,5.81,72844.3,-17.53,-38.55,-38.17,0,*60
1484596810.69,65235,5.81,72844.3,-17.51,-38.49,-38.11,0,*68
1484596811.95,65236,5.81,72842.8,-17.51,-38.35,-38.11,0,*60
1484596813.19,65237,5.81,72846.8,-17.53,-38.61,-38.23,0,*63
1484596814.41,65238,5.81,72844.3,-17.53,-38.43,-38.35,0,*6B
1484596815.7,65239,5.75,72842.5,-17.55,-38.67,-38.29,0,*67
1484596817.0,65240,5.81,72846.5,-17.55,-38.79,-38.29,0,*66
1484596818.24,65241,5.81,72846.5,-17.53,-38.55,-38.23,0,*65
1484596819.47,65242,5.81,72846.5,-17.53,-38.35,-38.11,0,*61
1484596820.71,65243,5.75,72844.0,-17.55,-38.61,-38.17,0,*61
1484596821.92,65244,5.81,72844.5,-17.53,-38.43,-38.17,0,*60
1484596823.17,65245,5.81,72848.0,-17.53,-38.55,-38.23,0,*61
1484596824.41,65246,5.81,72842.8,-17.53,-38.43,-38.23,0,*65
1484596825.64,65247,5.81,72846.0,-17.53,-38.43,-38.11,0,*65
1484596826.85,65248,5.81,72848.0,-17.53,-38.43,-38.17,0,*6C
1484596828.09,65249,5.81,72848.3,-17.55,-38.55,-38.17,0,*6C
1484596829.36,65250,5.81,72844.5,-17.53,-38.23,-37.99,0,*6A
1484596830.6,65251,5.81,72844.8,-17.53,-38.35,-37.99,0,*6C
1484596831.84,65252,5.81,72846.8,-17.53,-38.35,-37.99,0,*6F
1484596833.13,65253,5.81,72844.5,-17.51,-38.29,-37.93,0,*6B
1484596834.43,65254,5.81,72844.3,-17.51,-38.49,-38.11,0,*6F
1484596835.69,65255,5.81,72846.0,-17.51,-38.35,-38.11,0,*65
1484596836.93,65256,5.81,72848.0,-17.51,-38.35,-38.05,0,*63
1484596838.2,65257,5.81,72844.3,-17.51,-38.55,-38.29,0,*6A
1484596839.42,65258,5.75,72840.5,-17.49,-38.55,-38.17,0,*61
1484596840.68,65259,5.81,72846.0,-17.51,-38.67,-38.17,0,*68
1484596841.95,65260,5.81,72846.0,-17.51,-38.55,-38.29,0,*6E
1484596843.23,65261,5.81,72846.5,-17.51,-38.55,-38.29,0,*6F
1484596844.49,65262,5.81,72844.3,-17.49,-38.67,-38.29,0,*64
1484596845.79,65263,5.75,72844.3,-17.51,-38.67,-38.29,0,*6C
1484596847.07,65264,5.81,72844.5,-17.51,-38.85,-38.29,0,*67
1484596848.31,65265,5.81,72844.8,-17.51,-38.73,-38.35,0,*62
1484596849.58,65266,5.75,72840.8,-17.51,-38.73,-38.49,0,*6A
1484596850.82,65267,5.75,72844.5,-17.51,-38.73,-38.35,0,*60
1484596852.1,65268,5.81,72844.8,-17.51,-38.85,-38.49,0,*6D
1484596853.34,65269,5.81,72846.3,-17.51,-38.73,-38.35,0,*6E
1484596854.63,65270,5.81,72846.3,-17.51,-38.67,-38.49,0,*68
1484596855.91,65271,5.81,72844.0,-17.51,-38.85,-38.49,0,*65
1484596857.18,65272,5.81,72844.0,-17.51,-38.85,-38.49,0,*66
1484596858.45,65273,5.81,72844.8,-17.51,-38.73,-38.29,0,*68
1484596859.72,65274,5.75,72844.3,-17.51,-38.67,-38.17,0,*67
1484596860.96,65275,5.81,72844.5,-17.51,-38.55,-38.17,0,*67
1484596862.2,65276,5.81,72844.0,-17.51,-38.35,-38.05,0,*61
1484596863.49,65277,5.81,72848.0,-17.51,-38.49,-38.11,0,*6E
1484596864.73,65278,5.81,72848.3,-17.49,-38.29,-38.05,0,*6B
1484596865.97,65279,5.81,72846.5,-17.49,-38.35,-38.11,0,*62
1484596867.24,65280,5.75,72840.5,-17.51,-38.49,-38.17,0,*60
1484596868.51,65281,5.75,72840.8,-17.49,-38.67,-38.29,0,*69
1484596869.78,65282,5.81,72846.3,-17.49,-38.67,-38.29,0,*6A
1484596871.02,65283,5.81,72846.0,-17.49,-38.73,-38.29,0,*6E
1484596872.29,65284,5.75,72844.5,-17.49,-38.67,-38.29,0,*6C
1484596873.51,65285,5.81,72846.0,-17.49,-38.85,-38.35,0,*6C
1484596874.74,65286,5.81,72846.0,-17.49,-38.85,-38.55,0,*69
1484596876.01,65287,5.75,72842.8,-17.49,-38.67,-38.29,0,*6F
1484596877.28,65288,5.81,72846.5,-17.51,-38.85,-38.29,0,*65
1484596878.58,65289,5.81,72844.8,-17.51,-38.67,-38.29,0,*68
1484596879.82,65290,5.81,72846.3,-17.49,-38.55,-38.29,0,*68
1484596881.07,65291,5.81,72848.0,-17.49,-38.55,-38.29,0,*69
1484596882.32,65292,5.81,72844.8,-17.49,-38.49,-38.17,0,*6A
1484596883.59,65293,5.81,72848.5,-17.49,-38.49,-38.29,0,*66
1484596884.84,65294,5.81,72846.5,-17.49,-38.55,-38.29,0,*6C
1484596886.11,65295,5.81,72848.8,-17.49,-38.67,-38.29,0,*6C
1484596887.35,65296,5.81,72846.0,-17.49,-38.55,-38.29,0,*6E
1484596888.59,65297,5.75,72846.3,-17.49,-38.67,-38.17,0,*63
1484596889.81,65298,5.81,72844.8,-17.47,-38.55,-38.35,0,*63
1484596891.08,65299,5.81,72848.3,-17.45,-38.79,-38.43,0,*6F
1484596892.3,65300,5.75,72844.5,-17.47,-38.85,-38.55,0,*68
1484596893.53,65301,5.81,72846.8,-17.47,-38.85,-38.35,0,*6F
1484596894.77,65302,5.81,72844.0,-17.49,-38.73,-38.49,0,*60
1484596895.99,65303,5.81,72846.8,-17.47,-38.85,-38.55,0,*6B
1484596897.24,65304,5.75,72846.0,-17.45,-38.85,-38.61,0,*69
1484596898.48,65305,5.75,72844.5,-17.45,-38.97,-38.61,0,*6B
1484596899.75,65306,5.75,72844.8,-17.45,-38.85,-38.49,0,*61
1484596900.99,65307,5.75,72842.8,-17.47,-38.91,-38.55,0,*6A
1484596902.26,65308,5.81,72848.0,-17.47,-39.03,-38.67,0,*6E
1484596903.5,65309,5.81,72844.0,-17.47,-38.91,-38.55,0,*64
1484596904.75,65310,5.81,72846.0,-17.47,-38.91,-38.55,0,*6C
1484596906.01,65311,5.81,72846.8,-17.45,-38.67,-38.43,0,*61
1484596907.23,65312,5.81,72844.5,-17.47,-38.73,-38.35,0,*64
1484596908.45,65313,5.81,72848.8,-17.47,-38.85,-38.55,0,*6A
1484596909.72,65314,5.75,72842.5,-17.45,-38.79,-38.61,0,*6B
1484596910.99,65315,5.81,72844.8,-17.47,-38.91,-38.67,0,*68
1484596912.26,65316,5.81,72844.3,-17.45,-38.85,-38.49,0,*60
1484596913.48,65317,5.75,72844.5,-17.47,-38.85,-38.55,0,*6E
1484596914.75,65318,5.81,72846.5,-17.45,-38.85,-38.49,0,*6E
1484596916.03,65319,5.75,72844.5,-17.45,-38.79,-38.61,0,*66
1484596917.29,65320,5.81,72846.5,-17.45,-38.97,-38.49,0,*66
1484596918.56,65321,5.81,72846.8,-17.45,-38.85,-38.49,0,*64
1484596919.83,65322,5.81,72844.3,-17.45,-38.85,-38.67,0,*6B
1484596921.09,65323,5.75,72842.8,-17.45,-38.97,-38.67,0,*69
1484596922.36,65324,5.81,72846.5,-17.45,-38.97,-38.67,0,*6E
1484596923.65,65325,5.75,72842.8,-17.45,-39.03,-38.79,0,*6C
1484596924.94,65326,5.81,72844.5,-17.45,-39.03,-38.79,0,*6F
1484596926.2,65327,5.81,72848.0,-17.45,-38.97,-38.67,0,*6D
1484596927.46,65328,5.81,72850.3,-17.45,-38.97,-38.79,0,*6D
1484596928.73,65329,5.75,72842.0,-17.45,-38.97,-38.79,0,*6C
1484596930.0,65330,5.81,72844.8,-17.45,-38.85,-38.79,0,*67
1484596931.26,65331,5.81,72846.0,-17.45,-38.97,-38.67,0,*6A
1484596932.52,65332,5.81,72846.0,-17.45,-38.97,-38.79,0,*66
1484596933.78,65333,5.75,72842.5,-17.45,-38.97,-38.79,0,*67
1484596935.07,65334,5.75,72846.3,-17.45,-39.03,-39.03,0,*60
1484596936.34,65335,5.81,72846.8,-17.45,-39.03,-38.85,0,*6E
1484596937.58,65336,5.75,72844.0,-17.43,-39.03,-38.97,0,*68
1484596938.83,65337,5.81,72844.8,-17.43,-39.03,-38.97,0,*69
1484596940.08,65338,5.75,72840.8,-17.43,-39.15,-38.97,0,*61
1484596941.35,65339,5.81,72844.3,-17.45,-39.15,-38.85,0,*65
1484596942.64,65340,5.81,72844.3,-17.45,-39.23,-39.03,0,*61
1484596943.93,65341,5.81,72846.8,-17.45,-39.41,-39.29,0,*6C
1484596945.21,65342,5.81,72846.5,-17.45,-39.29,-39.41,0,*6F
1484596946.5,65343,5.81,72844.3,-17.45,-39.23,-39.29,0,*6A
1484596947.77,65344,5.81,72844.3,-17.43,-39.41,-39.29,0,*6F
1484596949.03,65345,5.81,72846.0,-17.43,-39.29,-39.29,0,*60
1484596950.32,65346,5.75,72842.3,-17.45,-39.29,-39.41,0,*6B
1484596951.6,65347,5.81,72844.3,-17.45,-39.29,-39.29,0,*64
1484596952.9,65348,5.81,72842.8,-17.45,-39.23,-39.15,0,*6E
1484596954.18,65349,5.81,72844.8,-17.45,-39.29,-39.15,0,*65
1484596955.39,65350,5.81,72844.5,-17.47,-39.47,-39.35,0,*65
1484596956.68,65351,5.81,72846.8,-17.45,-39.29,-39.29,0,*63
1484596957.91,65352,5.75,72842.5,-17.47,-39.41,-39.35,0,*61
1484596959.15,65353,5.75,72842.0,-17.47,-39.35,-39.23,0,*64
1484596960.36,65354,5.81,72846.5,-17.47,-39.35,-39.35,0,*64
1484596961.62,65355,5.81,72848.3,-17.47,-39.29,-39.23,0,*6F
1484596962.9,65356,5.81,72844.5,-17.45,-39.29,-39.41,0,*6A
1484596964.13,65357,5.81,72844.8,-17.47,-39.29,-39.35,0,*6A
1484596965.39,65358,5.81,72844.3,-17.47,-39.23,-39.23,0,*68
1484596966.62,65359,5.75,72842.3,-17.47,-39.29,-39.35,0,*64
1484596967.85,65360,5.81,72844.8,-17.47,-39.29,-39.47,0,*6B
1484596969.11,65361,5.81,72844.3,-17.45,-39.29,-39.47,0,*68
1484596970.32,65362,5.81,72840.3,-17.47,-39.35,-39.47,0,*64
1484596971.55,65363,5.75,72846.0,-17.45,-39.47,-39.47,0,*62
1484596972.77,65364,5.81,72844.5,-17.47,-39.47,-39.35,0,*62
1484596973.97,65365,5.81,72844.5,-17.47,-39.35,-39.47,0,*63
1484596975.18,65366,5.81,72846.8,-17.47,-39.35,-39.47,0,*60
1484596976.42,65367,5.75,72842.5,-17.47,-39.47,-39.53,0,*61
1484596977.62,65368,5.75,72842.5,-17.47,-39.35,-39.47,0,*6E
1484596978.83,65369,5.81,72844.3,-17.47,-39.47,-39.47,0,*6A
1484596980.05,65370,5.81,72846.0,-17.47,-39.47,-39.47,0,*62
1484596981.3,65371,5.81,72844.0,-17.47,-39.53,-39.53,0,*63
1484596982.55,65372,5.75,72840.5,-17.47,-39.85,-39.71,0,*6B
1484596983.81,65373,5.81,72842.3,-17.51,-39.65,-39.53,0,*63
1484596985.03,65374,5.81,72842.5,-17.47,-39.65,-39.65,0,*66
1484596986.28,65375,5.81,72844.8,-17.51,-39.47,-39.65,0,*60
1484596987.49,65376,5.81,72844.8,-17.49,-39.47,-39.47,0,*6A
1484596988.75,65377,5.75,72840.5,-17.49,-39.53,-39.53,0,*6B
1484596990.01,65378,5.81,72840.3,-17.49,-39.53,-39.53,0,*64
1484596991.25,65379,5.81,72842.0,-17.49,-39.47,-39.53,0,*60
1484596992.53,65380,5.75,72840.3,-17.51,-39.53,-39.53,0,*6A
1484596993.76,65381,5.75,72842.3,-17.49,-39.65,-39.65,0,*62
1484596995.03,65382,5.81,72842.3,-17.49,-39.71,-39.71,0,*61
1484596996.25,65383,5.75,72842.5,-17.49,-39.65,-39.85,0,*6E
1484596997.52,65384,5.81,72844.3,-17.51,-39.65,-39.71,0,*6B
1484596998.77,65385,5.81,72844.5,-17.51,-39.65,-39.65,0,*6F
1484597000.07,65386,5.75,72842.5,-17.51,-39.71,-39.71,0,*6C
1484597001.34,65387,5.81,72842.8,-17.51,-39.71,-39.85,0,*66
1484597002.58,65388,5.75,72840.8,-17.49,-39.47,-39.53,0,*6E
1484597003.84,65389,5.75,72840.5,-17.51,-39.47,-39.53,0,*66
1484597005.08,65390,5.75,72840.5,-17.49,-39.53,-39.65,0,*67
1484597006.35,65391,5.75,72842.5,-17.51,-39.53,-39.65,0,*6F
1484597007.59,65392,5.75,72840.0,-17.49,-39.47,-39.53,0,*65
1484597008.86,65393,5.81,72844.3,-17.53,-39.59,-39.79,0,*68
1484597010.13,65394,5.75,72842.0,-17.53,-39.53,-39.59,0,*67
1484597011.39,65395,5.81,72842.3,-17.53,-39.53,-39.71,0,*6C
1484597012.66,65396,5.81,72842.0,-17.53,-39.59,-39.71,0,*65
1484597013.92,65397,5.75,72842.8,-17.53,-39.53,-39.71,0,*6E
1484597015.18,65398,5.75,72840.3,-17.53,-39.53,-39.59,0,*6B
1484597016.46,65399,5.81,72842.0,-17.53,-39.59,-39.59,0,*60
1484597017.72,65400,5.81,72844.3,-17.53,-39.41,-39.71,0,*64
1484597018.99,65401,5.81,72842.8,-17.53,-39.41,-39.59,0,*6F
1484597020.26,65402,5.81,72842.8,-17.53,-39.71,-39.79,0,*6D
1484597021.53,65403,5.81,72844.5,-17.53,-39.59,-39.71,0,*6E
1484597022.83,65404,5.81,72842.5,-17.55,-39.79,-39.71,0,*6D
1484597024.1,65405,5.81,72844.8,-17.53,-39.59,-39.59,0,*62
1484597025.41,65406,5.81,72846.5,-17.55,-39.59,-39.79,0,*65
1484597026.67,65407,5.81,72846.0,-17.53,-39.53,-39.71,0,*60
1484597027.94,65408,5.81,72844.3,-17.53,-39.71,-39.79,0,*67
1484597029.21,65409,5.81,72844.3,-17.53,-39.71,-39.79,0,*66
1484597030.48,65410,5.81,72844.0,-17.55,-39.59,-39.65,0,*6F
1484597031.76,65411,5.81,72846.3,-17.53,-39.59,-39.71,0,*6D
1484597033.05,65412,5.75,72840.8,-17.55,-39.59,-39.79,0,*60
1484597034.33,65413,5.81,72846.0,-17.53,-39.59,-39.59,0,*65
1484597035.58,65414,5.75,72840.0,-17.55,-39.65,-39.65,0,*64
1484597036.88,65415,5.75,72844.0,-17.55,-39.59,-39.79,0,*67
1484597038.18,65416,5.81,72846.0,-17.55,-39.59,-39.79,0,*64
1484597039.42,65417,5.81,72844.8,-17.55,-39.65,-39.85,0,*69
1484597040.68,65418,5.81,72842.8,-17.53,-39.41,-39.59,0,*67
1484597041.92,65419,5.75,72842.5,-17.53,-39.35,-39.59,0,*65
1484597043.15,65420,5.75,72840.3,-17.53,-39.35,-39.53,0,*65
1484597044.44,65421,5.75,72840.8,-17.55,-39.41,-39.53,0,*61
1484597045.69,65422,5.81,72844.5,-17.53,-39.29,-39.53,0,*6A
1484597046.95,65423,5.75,72842.3,-17.53,-39.41,-39.53,0,*65
1484597048.19,65424,5.81,72846.0,-17.53,-39.35,-39.53,0,*61
1484597049.48,65425,5.81,72846.0,-17.55,-39.41,-39.59,0,*6F
1484597050.73,65426,5.81,72844.3,-17.53,-39.29,-39.53,0,*6E
1484597051.99,65427,5.81,72842.8,-17.53,-39.29,-39.53,0,*6F
1484597053.24,65428,5.81,72846.0,-17.53,-39.29,-39.53,0,*60
1484597054.51,65429,5.81,72846.0,-17.53,-39.41,-39.59,0,*65
1484597055.74,65430,5.75,72840.3,-17.53,-39.35,-39.53,0,*64
1484597057.0,65431,5.81,72846.5,-17.53,-39.15,-39.53,0,*67
1484597058.25,65432,5.81,72846.0,-17.51,-39.09,-39.47,0,*6E
1484597059.49,65433,5.81,72844.0,-17.51,-39.09,-39.47,0,*6F
1484597060.75,65434,5.81,72846.8,-17.51,-39.23,-39.35,0,*65
1484597062.01,65435,5.81,72844.5,-17.51,-39.23,-39.47,0,*61
1484597063.29,65436,5.75,72842.3,-17.51,-39.23,-39.53,0,*67
1484597064.56,65437,5.81,72846.0,-17.53,-39.41,-39.71,0,*60
1484597065.83,65438,5.75,72842.8,-17.53,-39.41,-39.79,0,*67
1484597067.09,65439,5.75,72840.5,-17.51,-39.53,-39.85,0,*64
1484597068.36,65440,5.81,72844.5,-17.51,-39.47,-39.71,0,*64
1484597069.6,65441,5.81,72844.3,-17.51,-39.47,-39.85,0,*6E
1484597070.82,65442,5.75,72842.5,-17.49,-39.47,-39.85,0,*64
1484597072.09,65443,5.81,72844.5,-17.53,-39.71,-40.09,0,*61
1484597073.36,65444,5.81,72846.3,-17.53,-39.59,-39.79,0,*65
1484597074.64,65445,5.81,72844.8,-17.53,-39.59,-39.79,0,*64
1484597075.91,65446,5.75,72842.5,-17.53,-39.59,-40.09,0,*6E
1484597077.18,65447,5.75,72840.8,-17.55,-39.85,-39.97,0,*61
1484597078.43,65448,5.75,72844.5,-17.53,-39.91,-40.09,0,*64
1484597079.69,65449,5.81,72844.0,-17.55,-39.97,-40.03,0,*6F
1484597080.93,65450,5.81,72844.5,-17.53,-39.71,-39.91,0,*6C
1484597082.19,65451,5.81,72846.3,-17.53,-39.53,-39.97,0,*6B
1484597083.43,65452,5.81,72846.5,-17.55,-39.65,-40.15,0,*6F
1484597084.68,65453,5.81,72846.3,-17.53,-39.91,-40.09,0,*6E
1484597085.98,65454,5.75,72842.5,-17.55,-39.79,-40.21,0,*63
1484597087.25,65455,5.81,72844.3,-17.55,-39.85,-40.21,0,*61
1484597088.52,65456,5.81,72846.5,-17.53,-39.59,-39.97,0,*66
1484597089.8,65457,5.81,72844.3,-17.55,-39.79,-40.15,0,*67
1484597091.06,65458,5.81,72846.8,-17.55,-39.85,-39.97,0,*6F
1484597092.33,65459,5.81,72846.8,-17.55,-39.59,-40.03,0,*6C
1484597093.58,65460,5.81,72844.8,-17.55,-39.47,-39.85,0,*69
1484597094.85,65461,5.81,72844.5,-17.55,-39.79,-40.03,0,*65
1484597096.11,65462,5.81,72844.8,-17.55,-39.65,-39.97,0,*68
1484597097.35,65463,5.81,72842.5,-17.55,-39.65,-39.85,0,*6A
1484597098.6,65464,5.75,72846.3,-17.55,-39.85,-40.15,0,*64
1484597099.84,65465,5.81,72846.0,-17.53,-39.71,-40.15,0,*68
1484597101.14,65466,5.75,72844.3,-17.55,-39.79,-39.97,0,*61
1484597102.42,65467,5.81,72844.8,-17.55,-39.79,-40.15,0,*64
1484597103.66,65468,5.81,72846.3,-17.55,-39.65,-40.15,0,*66
1484597104.88,65469,5.75,72842.8,-17.57,-39.85,-40.15,0,*6B
1484597106.1,65470,5.75,72840.8,-17.57,-39.65,-40.03,0,*6A
1484597107.35,65471,5.81,72844.8,-17.57,-39.79,-40.15,0,*61
1484597108.6,65472,5.75,72840.8,-17.61,-39.85,-40.29,0,*6B
1484597109.85,65473,5.81,72844.0,-17.57,-39.85,-40.21,0,*67
1484597111.12,65474,5.75,72842.3,-17.55,-39.79,-40.15,0,*66
1484597112.39,65475,5.81,72844.5,-17.55,-39.85,-40.21,0,*63
1484597113.63,65476,5.75,72840.0,-17.57,-39.97,-40.35,0,*64
1484597114.88,65477,5.81,72844.5,-17.61,-40.03,-40.41,0,*60
1484597116.14,65478,5.81,72844.8,-17.57,-39.97,-40.21,0,*6F
1484597117.38,65479,5.81,72842.8,-17.61,-40.03,-40.29,0,*60
1484597118.63,65480,5.81,72846.5,-17.61,-39.91,-40.29,0,*63
1484597119.91,65481,5.75,72840.3,-17.57,-39.79,-40.21,0,*69
1484597121.15,65482,5.75,72840.5,-17.57,-39.97,-40.35,0,*6F
1484597122.39,65483,5.75,72840.8,-17.61,-40.03,-40.41,0,*6B
1484597123.64,65484,5.81,72844.8,-17.61,-40.03,-40.41,0,*6C
1484597124.9,65485,5.81,72844.8,-17.61,-39.91,-40.41,0,*68
1484597126.17,65486,5.81,72844.8,-17.57,-39.79,-40.21,0,*6E
1484597127.42,65487,5.81,72844.0,-17.61,-39.79,-40.03,0,*6A
1484597128.67,65488,5.75,72842.0,-17.61,-39.85,-40.21,0,*66
1484597129.92,65489,5.81,72844.3,-17.61,-39.85,-40.21,0,*67
1484597131.17,65490,5.75,72842.8,-17.61,-39.91,-40.29,0,*62
1484597132.42,65491,5.75,72840.5,-17.61,-39.91,-40.41,0,*6D
1484597133.67,65492,5.81,72842.3,-17.61,-39.85,-40.21,0,*6D
1484597134.92,65493,5.75,72842.8,-17.61,-39.85,-40.29,0,*64
1484597136.17,65494,5.75,72840.8,-17.61,-39.91,-40.41,0,*68
1484597137.42,65495,5.75,72842.0,-17.61,-39.85,-40.21,0,*6A
1484597138.67,65496,5.81,72842.5,-17.61,-39.85,-40.29,0,*61
1484597139.92,65497,5.81,72846.0,-17.61,-39.85,-40.21,0,*68
1484597141.17,65498,5.81,72844.0,-17.61,-39.91,-40.29,0,*6A
1484597142.42,65499,5.81,72846.0,-17.61,-39.85,-40.41,0,*60
1484597143.7,65500,5.75,72840.3,-17.63,-39.91,-40.41,0,*66
1484597144.97,65501,5.81,72844.8,-17.63,-39.91,-40.41,0,*67
1484597146.25,65502,5.75,72842.0,-17.63,-39.85,-40.09,0,*6D
1484597147.52,65503,5.75,72846.0,-17.63,-39.85,-40.29,0,*6E
1484597148.79,65504,5.75,72842.0,-17.63,-39.85,-40.29,0,*69
1484597150.07,65505,5.75,72842.3,-17.63,-39.85,-40.09,0,*6A
1484597151.37,65506,5.81,72844.3,-17.63,-39.71,-40.09,0,*62
1484597152.64,65507,5.81,72842.3,-17.63,-39.85,-40.21,0,*62
1484597153.92,65508,5.81,72846.3,-17.63,-39.85,-40.29,0,*65
1484597155.21,65509,5.75,72842.3,-17.63,-39.71,-40.21,0,*67
1484597156.52,65510,5.81,72844.3,-17.63,-39.71,-40.09,0,*65
1484597157.79,65511,5.75,72840.5,-17.63,-39.85,-40.09,0,*6F
1484597159.09,65512,5.81,72844.5,-17.63,-39.71,-40.21,0,*6D
1484597160.37,65513,5.81,72846.3,-17.63,-39.91,-40.41,0,*64
1484597161.64,65514,5.81,72846.5,-17.63,-40.03,-40.41,0,*66
1484597162.91,65515,5.81,72846.3,-17.63,-39.85,-40.21,0,*61
1484597164.19,65516,5.81,72844.5,-17.63,-39.85,-40.21,0,*62
1484597165.48,65517,5.81,72846.0,-17.63,-39.71,-40.21,0,*68
1484597166.76,65518,5.75,72840.8,-17.63,-39.85,-40.41,0,*6A
1484597168.01,65519,5.81,72842.5,-17.63,-39.91,-40.47,0,*68
1484597169.28,65520,5.81,72846.0,-17.63,-39.91,-40.29,0,*6A
1484597170.55,65521,5.75,72844.5,-17.63,-39.85,-40.29,0,*6E
1484597171.83,65522,5.81,72844.0,-17.63,-39.85,-40.29,0,*6D
1484597173.1,65523,5.81,72844.3,-17.63,-39.65,-40.21,0,*6A
1484597174.4,65524,5.75,72842.8,-17.63,-39.71,-40.09,0,*62
1484597175.65,65525,5.81,72846.3,-17.63,-39.65,-40.03,0,*6C
1484597176.91,65526,5.81,72844.5,-17.63,-39.53,-40.03,0,*6A
1484597178.18,65527,5.81,72846.3,-17.63,-39.65,-40.09,0,*64
1484597179.48,65528,5.75,72844.3,-17.63,-39.71,-40.21,0,*64
1484597180.76,65529,5.75,72844.3,-17.63,-39.85,-40.21,0,*6E
1484597182.03,65530,5.81,72846.3,-17.63,-39.85,-40.41,0,*60
1484597183.33,65531,5.81,72844.0,-17.63,-39.71,-40.21,0,*6C
1484597184.63,65532,5.81,72846.0,-17.63,-39.71,-40.21,0,*6F
1484597185.93,65533,5.81,72844.0,-17.63,-39.71,-40.09,0,*64
1484597187.24,65534,5.81,72844.0,-17.63,-39.71,-40.09,0,*63
1484597188.51,65535,5.81,72846.3,-17.63,-39.65,-40.09,0,*67
1484597189.76,0,5.75,72844.0,-17.63,-39.91,-40.29,0,*6E
1484597191.01,1,5.81,72846.5,-17.63,-39.85,-40.21,0,*62
1484597192.29,2,5.81,72844.8,-17.63,-39.71,-40.21,0,*6A
1484597193.54,3,5.81,72846.0,-17.63,-39.85,-40.29,0,*68
1484597194.79,4,5.81,72846.5,-17.63,-39.91,-40.21,0,*62
1484597196.04,5,5.75,72844.5,-17.63,-39.85,-40.29,0,*6E
1484597197.29,6,5.81,72846.0,-17.63,-39.91,-40.29,0,*68
1484597198.56,7,5.81,72846.3,-17.63,-39.71,-40.29,0,*67
1484597199.84,8,5.81,72844.3,-17.63,-39.71,-40.21,0,*60
1484597201.06,9,5.81,72844.0,-17.65,-39.97,-40.35,0,*6A
1484597202.27,10,5.81,72848.5,-17.65,-39.91,-40.35,0,*54
1484597203.5,11,5.75,72844.0,-17.65,-39.97,-40.53,0,*53
1484597204.72,12,5.81,72844.8,-17.65,-39.97,-40.47,0,*55
1484597205.98,13,5.81,72846.5,-17.63,-39.91,-40.41,0,*52
1484597207.24,14,5.81,72844.5,-17.63,-39.65,-40.09,0,*52
1484597208.5,15,5.81,72844.5,-17.65,-39.71,-40.29,0,*52
1484597209.76,16,5.81,72844.5,-17.65,-39.71,-40.09,0,*53
1484597211.0,17,5.81,72846.5,-17.65,-39.79,-40.15,0,*57
1484597212.23,18,5.81,72846.3,-17.65,-39.91,-40.29,0,*51
1484597213.47,19,5.81,72844.3,-17.65,-39.79,-40.15,0,*59
1484597214.72,20,5.81,72844.5,-17.63,-39.91,-40.21,0,*54
1484597216.01,21,5.75,72846.0,-17.63,-39.71,-40.09,0,*51
1484597217.27,22,5.75,72844.3,-17.63,-39.71,-39.91,0,*5D
1484597218.49,23,5.75,72844.5,-17.63,-39.65,-40.03,0,*5C
1484597219.74,24,5.81,72844.0,-17.63,-39.53,-39.91,0,*5B
1484597220.99,25,5.81,72846.5,-17.63,-39.53,-40.03,0,*5F
1484597222.25,26,5.81,72848.3,-17.63,-39.47,-39.71,0,*52
1484597223.49,27,5.81,72844.3,-17.63,-39.41,-39.85,0,*5E
1484597224.74,28,5.81,72846.8,-17.63,-39.53,-39.85,0,*52
1484597226.0,29,5.81,72848.5,-17.63,-39.47,-39.71,0,*5D
1484597227.25,30,5.81,72846.5,-17.63,-39.53,-39.91,0,*5E
1484597228.47,31,5.81,72848.5,-17.63,-39.47,-39.85,0,*5F
1484597229.7,32,5.81,72846.3,-17.63,-39.47,-40.03,0,*5C
1484597230.93,33,5.81,72846.3,-17.63,-39.65,-40.03,0,*5D
1484597232.17,34,5.81,72844.3,-17.63,-39.53,-40.03,0,*5F
1484597233.4,35,5.81,72842.0,-17.63,-39.65,-40.03,0,*5B
1484597234.63,36,5.81,72846.5,-17.63,-39.65,-40.03,0,*58
1484597235.91,37,5.81,72846.5,-17.63,-39.71,-40.09,0,*56
1484597237.17,38,5.81,72848.0,-17.63,-39.91,-40.29,0,*55
1484597238.43,39,5.81,72844.8,-17.63,-39.91,-40.41,0,*5A
1484597239.69,40,5.81,72846.8,-17.63,-39.91,-40.29,0,*5A
1484597240.94,41,5.81,72846.8,-17.63,-39.85,-40.29,0,*5E
1484597242.2,42,5.81,72850.5,-17.63,-39.85,-40.21,0,*55
1484597243.45,43,5.81,72848.5,-17.63,-39.85,-40.21,0,*54
1484597244.71,44,5.81,72846.3,-17.63,-39.85,-40.41,0,*55
1484597245.97,45,5.75,72842.0,-17.63,-40.09,-40.47,0,*58
1484597247.19,46,5.81,72848.5,-17.63,-40.03,-40.47,0,*51
1484597248.41,47,5.75,72846.0,-17.63,-40.03,-40.47,0,*50
1484597249.67,48,5.81,72842.5,-17.63,-39.85,-40.21,0,*5F
1484597250.93,49,5.75,72840.5,-17.63,-39.91,-40.21,0,*5B
1484597252.21,50,5.81,72846.0,-17.63,-39.71,-40.21,0,*5D
1484597253.49,51,5.81,72846.5,-17.63,-39.71,-40.21,0,*5C
1484597254.75,52,5.81,72846.8,-17.63,-39.91,-40.21,0,*51
1484597256.0,53,5.81,72846.0,-17.63,-39.85,-40.29,0,*5D
1484597257.26,54,5.75,72844.3,-17.63,-39.91,-40.41,0,*51
1484597258.52,55,5.81,72846.8,-17.63,-39.85,-40.29,0,*5B
1484597259.8,56,5.81,72846.3,-17.63,-39.71,-40.09,0,*51
1484597261.06,57,5.81,72848.3,-17.63,-39.85,-40.41,0,*57
1484597262.32,58,5.81,72848.0,-17.63,-40.09,-40.47,0,*54
1484597263.57,59,5.81,72844.8,-17.63,-40.09,-40.47,0,*55
1484597264.82,60,5.81,72846.0,-17.63,-40.03,-40.41,0,*53
1484597266.07,61,5.81,72844.8,-17.63,-40.03,-40.29,0,*5C
1484597267.33,62,5.75,72844.0,-17.63,-39.91,-40.29,0,*5A
1484597268.59,63,5.75,72842.5,-17.63,-39.85,-40.21,0,*56
1484597269.84,64,5.75,72844.0,-17.63,-39.53,-39.91,0,*5F
1484597271.07,65,5.75,72840.8,-17.63,-39.47,-39.91,0,*5B
1484597272.29,66,5.81,72846.5,-17.63,-39.47,-39.85,0,*5D
1484597273.58,67,5.75,72844.3,-17.63,-39.71,-40.09,0,*53
1484597274.82,68,5.81,72846.8,-17.63,-39.53,-40.03,0,*56
1484597276.11,69,5.81,72846.5,-17.63,-39.71,-40.21,0,*57
1484597277.36,70,5.81,72844.8,-17.63,-39.65,-40.09,0,*50
1484597278.62,71,5.81,72844.5,-17.63,-39.71,-40.03,0,*5E
1484597279.84,72,5.81,72842.8,-17.63,-39.47,-39.85,0,*58
1484597281.07,73,5.81,72844.5,-17.63,-39.65,-40.03,0,*59
1484597282.3,74,5.81,72844.5,-17.63,-39.65,-40.03,0,*5E
1484597283.58,75,5.81,72846.3,-17.63,-39.71,-40.09,0,*50
1484597284.87,76,5.75,72846.3,-17.63,-39.71,-40.09,0,*53
1484597286.15,77,5.81,72848.0,-17.63,-39.71,-40.21,0,*58
1484597287.44,78,5.81,72844.5,-17.63,-39.71,-40.09,0,*5D
1484597288.69,79,5.81,72844.0,-17.63,-39.85,-40.21,0,*5D
1484597289.95,80,5.81,72846.0,-17.63,-39.65,-40.09,0,*5F
1484597291.18,81,5.81,72844.5,-17.63,-39.65,-39.91,0,*51
1484597292.46,82,5.75,72844.5,-17.63,-39.53,-40.09,0,*58
1484597293.71,83,5.81,72846.5,-17.63,-39.85,-40.21,0,*58
1484597294.94,84,5.81,72844.5,-17.63,-39.65,-40.03,0,*51
1484597296.19,85,5.81,72846.8,-17.63,-39.71,-40.03,0,*55
1484597297.45,86,5.81,72846.0,-17.63,-40.03,-40.21,0,*5D
1484597298.7,87,5.81,72846.8,-17.63,-39.91,-40.21,0,*59
1484597299.98,88,5.75,72844.5,-17.63,-39.71,-40.21,0,*58
1484597301.24,89,5.81,72846.0,-17.63,-39.71,-39.91,0,*5C
1484597302.5,90,5.81,72846.8,-17.63,-39.71,-40.03,0,*51
1484597303.78,91,5.81,72844.8,-17.63,-39.71,-40.21,0,*50
1484597305.04,92,5.81,72844.5,-17.63,-39.85,-40.09,0,*52
1484597306.29,93,5.81,72848.0,-17.63,-39.85,-40.09,0,*53
1484597307.56,94,5.81,72844.5,-17.63,-39.91,-40.41,0,*5D
1484597308.81,95,5.81,72846.8,-17.63,-40.03,-40.29,0,*57